Hagerstown, MD

2:37 PM EDT on October 14, 2019 (GMT -0400)
Hagerstown Regional-Henson

Weather History for KHGR - August, 2019

Change the Weather History Date:

Thursday, August 1, 2019

  Actual Average Record
Temperature  
Mean Temperature 78 °F 75 °F  
Max Temperature 90 °F 85 °F 95 °F (2011)
Min Temperature 65 °F 65 °F 57 °F (1997)
Degree Days  
Heating Degree Days 0 0  
Month to date heating degree days 0 0  
Since 1 June heating degree days 5 18  
Since 1 July heating degree days 0 0  
Cooling Degree Days 13 10  
Month to date cooling degree days 13 10  
Year to date cooling degree days 880 616  
Since 1 June cooling degree days 698 540  
Growing Degree Days 26 (Base 50)    
Moisture  
Dew Point 64 °F    
Average Humidity 67    
Maximum Humidity 100    
Minimum Humidity 34    
Precipitation  
Precipitation 0.00 in 0.08 in 1.60 in (2018)
Month to date precipitation 0.00 0.08  
Year to date precipitation 25.97 23.57  
Sea Level Pressure  
Sea Level Pressure 30.10 in    
Wind  
Wind Speed 4 mph (ESE)    
Max Wind Speed 12 mph    
Max Gust Speed 14 mph    
Visibility 7 miles    
Events Fog    
T = Trace of Precipitation, MM = Missing Value Source: NWS Daily Summary

Daily Weather History Graph

Daily Weather History Graph

Search for Another Location

Airport or City:

Astronomy

Aug. 01, 2019 Rise Set
Actual Time 6:09 AM EDT 8:24 PM EDT
Civil Twilight 5:39 AM EDT 8:54 PM EDT
Nautical Twilight 5:02 AM EDT 9:31 PM EDT
Astronomical Twilight 4:21 AM EDT 10:11 PM EDT
Moon 6:31 AM EDT (8/1) 9:09 PM EDT (8/1)
Length of Visible Light 15h 14m
Length of Day
14h 14m
New Moon, 0% of the Moon is Illuminated
Aug 1
New Moon
Aug 7
First Quarter
Aug 15
Full
Aug 23
Last Quarter
Aug 30
New

Hourly Weather History & Observations

Time (EDT) Temp. Heat Index Dew Point Humidity Pressure Visibility Wind Dir Wind Speed Gust Speed Precip Events Conditions
12:53 AM 69.1 °F - 66.0 °F 90% 30.09 in 10.0 mi South 5.8 mph - N/A   Clear
1:53 AM 66.9 °F - 64.9 °F 93% 30.09 in 8.0 mi SSE 5.8 mph - N/A   Clear
2:53 AM 66.9 °F - 64.0 °F 90% 30.10 in 10.0 mi SE 3.5 mph - N/A   Clear
3:53 AM 66.0 °F - 64.0 °F 93% 30.10 in 10.0 mi SSE 4.6 mph - N/A   Clear
4:53 AM 64.9 °F - 63.0 °F 93% 30.10 in 7.0 mi Calm Calm - N/A   Clear
5:01 AM 64.9 °F - 63.0 °F 93% 30.08 in 8.0 mi Calm Calm - N/A   Scattered Clouds
5:53 AM 64.9 °F - 63.0 °F 93% 30.11 in 3.0 mi South 4.6 mph - N/A   Mostly Cloudy
6:01 AM 64.9 °F - 64.0 °F 97% 30.09 in 1.8 mi South 3.5 mph - N/A   Mostly Cloudy
6:13 AM 64.9 °F - 64.0 °F 97% 30.09 in 1.2 mi SSE 3.5 mph - N/A   Overcast
6:25 AM 64.9 °F - 64.0 °F 97% 30.09 in 0.2 mi SE 4.6 mph - N/A Fog Fog
6:53 AM 64.9 °F - 64.0 °F 97% 30.11 in 0.5 mi ESE 3.5 mph - N/A Fog Fog
7:01 AM 64.9 °F - 64.0 °F 97% 30.10 in 0.2 mi ESE 3.5 mph - N/A Fog Fog
7:53 AM 64.9 °F - 64.9 °F 100% 30.12 in 0.2 mi ESE 3.5 mph - N/A Fog Fog
8:21 AM 66.0 °F - 64.9 °F 96% 30.11 in 0.8 mi Calm Calm - N/A   Overcast
8:30 AM 66.9 °F - 64.9 °F 93% 30.11 in 2.0 mi Calm Calm - N/A   Overcast
8:53 AM 68.0 °F - 66.0 °F 93% 30.14 in 3.0 mi Calm Calm - N/A   Partly Cloudy
9:53 AM 73.9 °F - 66.9 °F 79% 30.14 in 10.0 mi Calm Calm - N/A   Scattered Clouds
10:53 AM 78.1 °F - 69.1 °F 74% 30.15 in 10.0 mi NNW 3.5 mph - N/A   Partly Cloudy
11:53 AM 82.9 °F 86.5 °F 69.1 °F 63% 30.14 in 10.0 mi Variable 3.5 mph - N/A   Partly Cloudy
12:53 PM 82.9 °F 85.0 °F 66.0 °F 56% 30.14 in 10.0 mi Variable 3.5 mph - N/A   Scattered Clouds
1:53 PM 87.1 °F 88.3 °F 64.0 °F 46% 30.13 in 10.0 mi NW 6.9 mph - N/A   Partly Cloudy
2:53 PM 88.0 °F 88.4 °F 62.1 °F 42% 30.11 in 10.0 mi NNW 4.6 mph - N/A   Scattered Clouds
3:53 PM 89.1 °F 89.3 °F 62.1 °F 40% 30.09 in 10.0 mi Variable 5.8 mph - N/A   Scattered Clouds
4:53 PM 89.1 °F 87.7 °F 57.0 °F 34% 30.07 in 10.0 mi WNW 6.9 mph - N/A   Partly Cloudy
5:53 PM 88.0 °F 87.1 °F 59.0 °F 37% 30.06 in 10.0 mi NNE 8.1 mph - N/A   Partly Cloudy
6:53 PM 87.1 °F 85.9 °F 57.0 °F 36% 30.06 in 10.0 mi NNW 5.8 mph - N/A   Clear
7:53 PM 84.0 °F 83.3 °F 57.0 °F 40% 30.08 in 10.0 mi North 3.5 mph - N/A   Clear
8:53 PM 79.0 °F - 66.9 °F 66% 30.10 in 10.0 mi East 6.9 mph - N/A   Clear
9:53 PM 77.0 °F - 66.9 °F 71% 30.11 in 10.0 mi East 5.8 mph - N/A   Clear
10:53 PM 75.0 °F - 66.9 °F 76% 30.11 in 10.0 mi NNW 4.6 mph - N/A   Clear
11:53 PM 75.9 °F - 66.0 °F 71% 30.12 in 10.0 mi ENE 3.5 mph - N/A   Clear